Flag for Germany Weather past 2 weeks in Weißenfels, Saxony-Anhalt, Germany

Now
68 °F

Overcast.


Feels Like: 68 °F
Forecast: 57 / 74 °F
Wind: 3 mph from Southwest

Location: Leipzig-Schkeuditz

Current Time: Aug 29, 2014 at 1:11:23 PM

Latest Report: Aug 29, 2014 at 12:00 PM


Visibility: 22 mi

Pressure: 29.96 "Hg

Humidity: 76%

Dew point: 60 °F

Location of WeißenfelsLocation

Historic Weather in Weißenfels — Graph

°F

Weißenfels temperature yesterday

Maximum temperature yesterday: 73 °F (at 4:00 PM)
Minimum temperature yesterday: 48 °F (at 6:00 AM)
Average temperature yesterday: 61 °F

Past Weeks' High & Low Weather Summary

 TemperatureHumidityPressure
High73 °F (Aug 28, 4:00 PM)97% (Aug 26, 4:00 AM)30.09 "Hg (Aug 26, 4:00 AM)
Low48 °F (Aug 21, 6:00 AM)31% (Aug 22, 4:00 PM)29.68 "Hg (Aug 18, 1:00 PM)
Average59 °F72%29.92 "Hg
* Reported Aug 14 12:00 Noon — Aug 29 12:00 Noon, Weißenfels, Weather by CustomWeather, © 2014

Note: Actual official high and low records may vary slightly from our data, if they occured in-between our weather recording intervals... More about our weather records

Advertising

Weißenfels weather history for previous 24 hours

 ConditionsComfort  
Time TempWeatherWind HumidityBarometerVisibility
12:00 PM
Aug 29
68 °FOvercast.3 mph76%29.96 "Hg22 mi
10:00 AM67 °FOvercast.5 mph74%29.96 "Hg25 mi
9:00 AM65 °FOvercast.5 mph75%29.96 "Hg28 mi
8:00 AM62 °FOvercast.5 mph83%29.97 "Hg28 mi
7:00 AM62 °FOvercast.2 mph79%29.97 "Hg28 mi
6:00 AM61 °FOvercast.3 mph78%29.97 "Hg25 mi
5:00 AM61 °FOvercast.3 mph76%29.97 "Hg25 mi
4:00 AM61 °FOvercast.3 mph76%29.98 "Hg25 mi
3:00 AM60 °FOvercast.5 mph77%29.99 "Hg25 mi
2:00 AM60 °FOvercast.5 mph76%30.00 "Hg28 mi
1:00 AM60 °FOvercast.3 mph72%30.01 "Hg28 mi
12:00 AM60 °FOvercast.3 mph71%30.01 "Hg28 mi
10:00 PM
Aug 28
61 °FOvercast.2 mph67%30.02 "Hg28 mi
9:00 PM63 °FOvercast.2 mph62%30.01 "Hg28 mi
8:00 PM67 °FPartly sunny.1 mph51%30.00 "Hg31 mi
7:00 PM72 °FScattered clouds.1 mph45%30.00 "Hg37 mi
6:00 PM72 °FPassing clouds.2 mph37%30.01 "Hg37 mi
4:00 PM73 °FPassing clouds.3 mph33%30.03 "Hg37 mi
3:00 PM72 °FPassing clouds.3 mph37%30.05 "Hg37 mi
2:00 PM71 °FPassing clouds.2 mph41%30.05 "Hg37 mi
1:00 PM70 °FPassing clouds.3 mph44%30.06 "Hg37 mi
Weather by CustomWeather, © 2014

See weather overviewHow to use our weather pages